| time (UTC) | temp C | wind direction | speed KPH | gust KPH | rain 1hr cm | rain 24hr cm | rain mn cm | humidity % | barometer mb |
| 20260902014516 | 26 | 340 | 0.0 | 3.2 | 0.00 | 0.00 | 0.00 | 50 | 1015.2 |
| 20260902013017 | 27 | 325 | 0.0 | 9.7 | 0.00 | 0.00 | 0.00 | 50 | 1015.3 |
| 20260902011510 | 27 | 315 | 1.6 | 4.8 | 0.00 | 0.00 | 0.00 | 50 | 1015.4 |
| 20260902010011 | 28 | 336 | 1.6 | 9.7 | 0.00 | 0.00 | 0.00 | 47 | 1015.6 |
| 20260902004512 | 30 | 360 | 0.0 | 4.8 | 0.00 | 0.00 | 0.00 | 43 | 1015.5 |
| 20260902003022 | 31 | 215 | 1.6 | 6.4 | 0.00 | 0.00 | 0.00 | 40 | 1015.1 |
| 20260902001523 | 31 | 209 | 3.2 | 6.4 | 0.00 | 0.00 | 0.00 | 39 | 1015.2 |
| 20260902000006 | 31 | 170 | 1.6 | 4.8 | 0.00 | 0.00 | 0.00 | 38 | 1015.2 |
| 20260901234509 | 32 | 177 | 3.2 | 12.9 | 0.00 | 0.00 | 0.00 | 36 | 1015.1 |
| 20260901233014 | 33 | 180 | 4.8 | 11.3 | 0.00 | 0.00 | 0.00 | 34 | 1014.9 |
| 20260901231524 | 34 | 177 | 8.0 | 14.5 | 0.00 | 0.00 | 0.00 | 33 | 1015.0 |
| 20260901230027 | 35 | 230 | 8.0 | 20.9 | 0.00 | 0.00 | 0.00 | 31 | 1014.8 |
| 20260901224508 | 35 | 239 | 4.8 | 19.3 | 0.00 | 0.00 | 0.00 | 31 | 1014.7 |
| 20260901223012 | 35 | 250 | 8.0 | 22.5 | 0.00 | 0.00 | 0.00 | 31 | 1014.8 |
| 20260901221516 | 35 | 360 | 9.7 | 20.9 | 0.00 | 0.00 | 0.00 | 31 | 1015.0 |
| 20260901220038 | 35 | 260 | 8.0 | 20.9 | 0.00 | 0.00 | 0.00 | 32 | 1015.1 |
| 20260901214529 | 34 | 168 | 6.4 | 19.3 | 0.00 | 0.00 | 0.00 | 31 | 1015.3 |
| 20260901213013 | 35 | 199 | 4.8 | 12.9 | 0.00 | 0.00 | 0.00 | 30 | 1015.4 |
| 20260901211518 | 35 | 360 | 8.0 | 19.3 | 0.00 | 0.00 | 0.00 | 30 | 1015.5 |
| 20260901210026 | 35 | 360 | 4.8 | 20.9 | 0.00 | 0.00 | 0.00 | 30 | 1015.7 |
| 20260901204535 | 35 | 360 | 6.4 | 14.5 | 0.00 | 0.00 | 0.00 | 30 | 1016.0 |
| 20260901203037 | 35 | 360 | 8.0 | 17.7 | 0.00 | 0.00 | 0.00 | 31 | 1016.3 |
| 20260901201512 | 35 | 227 | 8.0 | 20.9 | 0.00 | 0.00 | 0.00 | 29 | 1016.4 |
| 20260901200024 | 35 | 360 | 11.3 | 22.5 | 0.00 | 0.00 | 0.00 | 31 | 1016.5 |
| 20260901194525 | 35 | 188 | 11.3 | 20.9 | 0.00 | 0.00 | 0.00 | 30 | 1016.7 |
| 20260901193034 | 35 | 360 | 11.3 | 22.5 | 0.00 | 0.00 | 0.00 | 30 | 1016.8 |
| 20260901191511 | 35 | 183 | 8.0 | 24.1 | 0.00 | 0.00 | 0.00 | 32 | 1017.2 |
| 20260901190020 | 34 | 190 | 9.7 | 22.5 | 0.00 | 0.00 | 0.00 | 33 | 1017.4 |
| 20260901184503 | 34 | 203 | 14.5 | 29.0 | 0.00 | 0.00 | 0.00 | 29 | 1017.6 |
| 20260901183007 | 33 | 172 | 11.3 | 22.5 | 0.00 | 0.00 | 0.00 | 32 | 1017.8 |
| 20260901181521 | 34 | 198 | 4.8 | 16.1 | 0.00 | 0.00 | 0.00 | 35 | 1018.0 |
| 20260901180019 | 33 | 182 | 9.7 | 19.3 | 0.00 | 0.00 | 0.00 | 36 | 1018.2 |
| 20260901174545 | 33 | 211 | 6.4 | 16.1 | 0.00 | 0.00 | 0.00 | 39 | 1018.4 |
| 20260901173004 | 32 | 200 | 4.8 | 16.1 | 0.00 | 0.00 | 0.00 | 41 | 1018.5 |
| 20260901171510 | 32 | 229 | 3.2 | 12.9 | 0.00 | 0.00 | 0.00 | 41 | 1018.7 |
| 20260901170012 | 32 | 233 | 6.4 | 16.1 | 0.00 | 0.00 | 0.00 | 43 | 1018.8 |
| 20260901164525 | 31 | 244 | 6.4 | 12.9 | 0.00 | 0.00 | 0.00 | 43 | 1018.9 |
| 20260901163027 | 31 | 262 | 4.8 | 16.1 | 0.00 | 0.00 | 0.00 | 43 | 1019.0 |
| 20260901161510 | 30 | 252 | 8.0 | 14.5 | 0.00 | 0.00 | 0.00 | 44 | 1018.9 |
| 20260901160021 | 30 | 286 | 4.8 | 17.7 | 0.00 | 0.00 | 0.00 | 46 | 1018.9 |
| 20260901154518 | 29 | 256 | 4.8 | 17.7 | 0.00 | 0.00 | 0.00 | 49 | 1018.7 |
| 20260901153026 | 28 | 173 | 8.0 | 16.1 | 0.00 | 0.00 | 0.00 | 50 | 1018.7 |
| 20260901151507 | 27 | 360 | 8.0 | 16.1 | 0.00 | 0.00 | 0.00 | 54 | 1018.7 |
| 20260901150015 | 26 | 173 | 4.8 | 12.9 | 0.00 | 0.00 | 0.00 | 60 | 1018.7 |
| 20260901144517 | 25 | 219 | 8.0 | 17.7 | 0.00 | 0.00 | 0.00 | 62 | 1018.5 |
| 20260901143027 | 24 | 225 | 8.0 | 16.1 | 0.00 | 0.00 | 0.00 | 65 | 1018.7 |
| 20260901141528 | 23 | 223 | 8.0 | 17.7 | 0.00 | 0.00 | 0.00 | 67 | 1018.8 |
| 20260901140027 | 22 | 220 | 6.4 | 14.5 | 0.00 | 0.00 | 0.00 | 71 | 1018.6 |
| 20260901134522 | 21 | 214 | 4.8 | 12.9 | 0.00 | 0.00 | 0.00 | 74 | 1018.7 |
| 20260901133024 | 21 | 218 | 1.6 | 11.3 | 0.00 | 0.00 | 0.00 | 79 | 1018.7 |
| 20260901131528 | 19 | 171 | 1.6 | 4.8 | 0.00 | 0.00 | 0.00 | 84 | 1018.5 |
| 20260901130031 | 18 | 207 | 3.2 | 4.8 | 0.00 | 0.00 | 0.00 | 85 | 1018.5 |
| 20260901124522 | 18 | 160 | 0.0 | 3.2 | 0.00 | 0.00 | 0.00 | 85 | 1018.5 |
| 20260901123036 | 18 | 139 | 1.6 | 4.8 | 0.00 | 0.00 | 0.00 | 85 | 1018.4 |
| 20260901121528 | 17 | 148 | 0.0 | 3.2 | 0.00 | 0.00 | 0.00 | 85 | 1018.1 |
| 20260901120042 | 18 | 176 | 1.6 | 3.2 | 0.00 | 0.00 | 0.00 | 86 | 1018.0 |
| 20260901114538 | 18 | 209 | 0.0 | 3.2 | 0.00 | 0.00 | 0.00 | 86 | 1018.1 |
| 20260901113018 | 18 | 205 | 0.0 | 3.2 | 0.00 | 0.00 | 0.00 | 85 | 1018.1 |
| 20260901111529 | 18 | 181 | 0.0 | 3.2 | 0.00 | 0.00 | 0.00 | 86 | 1018.1 |
| 20260901110030 | 18 | 163 | 0.0 | 0.0 | 0.00 | 0.00 | 0.00 | 85 | 1018.1 |
| 20260901104530 | 18 | 158 | 0.0 | 0.0 | 0.00 | 0.00 | 0.00 | 85 | 1018.1 |
| 20260901103032 | 18 | 342 | 0.0 | 0.0 | 0.00 | 0.00 | 0.00 | 85 | 1018.3 |
| 20260901101504 | 18 | 342 | 0.0 | 0.0 | 0.00 | 0.00 | 0.00 | 84 | 1018.4 |
| 20260901100003 | 18 | 342 | 0.0 | 3.2 | 0.00 | 0.00 | 0.00 | 84 | 1018.5 |
| 20260901094510 | 18 | 342 | 0.0 | 0.0 | 0.00 | 0.00 | 0.00 | 83 | 1018.5 |
| 20260901093003 | 19 | 342 | 0.0 | 3.2 | 0.00 | 0.00 | 0.00 | 81 | 1018.6 |
| 20260901091503 | 20 | 182 | 1.6 | 4.8 | 0.00 | 0.00 | 0.00 | 79 | 1018.4 |
| 20260901090008 | 21 | 321 | 0.0 | 3.2 | 0.00 | 0.00 | 0.00 | 75 | 1018.5 |
| 20260901084508 | 21 | 251 | 0.0 | 6.4 | 0.00 | 0.00 | 0.00 | 74 | 1018.5 |
| 20260901083003 | 21 | 214 | 0.0 | 1.6 | 0.00 | 0.00 | 0.00 | 78 | 1018.2 |
| 20260901081503 | 21 | 271 | 0.0 | 1.6 | 0.00 | 0.00 | 0.00 | 78 | 1018.2 |
| 20260901080005 | 20 | 214 | 1.6 | 6.4 | 0.00 | 0.00 | 0.00 | 81 | 1018.2 |
| 20260901074504 | 20 | 259 | 0.0 | 3.2 | 0.00 | 0.00 | 0.00 | 81 | 1018.2 |
| 20260901073024 | 20 | 250 | 0.0 | 3.2 | 0.00 | 0.00 | 0.00 | 82 | 1018.2 |
| 20260901071504 | 20 | 257 | 0.0 | 3.2 | 0.00 | 0.00 | 0.00 | 83 | 1018.1 |
| 20260901070006 | 20 | 246 | 0.0 | 3.2 | 0.00 | 0.00 | 0.00 | 82 | 1018.0 |
| 20260901064510 | 21 | 213 | 0.0 | 3.2 | 0.00 | 0.00 | 0.00 | 82 | 1017.8 |
| 20260901063007 | 21 | 195 | 0.0 | 3.2 | 0.00 | 0.00 | 0.00 | 80 | 1017.6 |
| 20260901061505 | 21 | 257 | 0.0 | 3.2 | 0.00 | 0.00 | 0.00 | 78 | 1017.5 |
| 20260901060006 | 21 | 238 | 0.0 | 3.2 | 0.00 | 0.00 | 0.00 | 75 | 1017.4 |
| 20260901054504 | 22 | 250 | 0.0 | 3.2 | 0.00 | 0.00 | 0.00 | 72 | 1017.4 |
| 20260901053006 | 23 | 205 | 0.0 | 3.2 | 0.00 | 0.00 | 0.00 | 69 | 1017.4 |
| 20260901051507 | 24 | 194 | 1.6 | 3.2 | 0.00 | 0.00 | 0.00 | 65 | 1017.4 |
| 20260901050007 | 25 | 194 | 0.0 | 3.2 | 0.00 | 0.00 | 0.00 | 62 | 1017.4 |
| 20260901044509 | 26 | 170 | 0.0 | 3.2 | 0.00 | 0.00 | 0.00 | 57 | 1017.4 |
| 20260901043009 | 26 | 221 | 0.0 | 3.2 | 0.00 | 0.00 | 0.00 | 53 | 1017.4 |
| 20260901041510 | 27 | 211 | 1.6 | 8.0 | 0.00 | 0.00 | 0.00 | 52 | 1017.4 |
| 20260901040009 | 27 | 195 | 0.0 | 6.4 | 0.00 | 0.00 | 0.00 | 51 | 1017.4 |
| 20260901034511 | 27 | 259 | 0.0 | 4.8 | 0.00 | 0.00 | 0.00 | 51 | 1017.7 |
| 20260901033016 | 26 | 256 | 0.0 | 3.2 | 0.00 | 0.00 | 0.00 | 54 | 1017.2 |
| 20260901031509 | 25 | 239 | 0.0 | 0.0 | 0.00 | 0.00 | 0.00 | 64 | 1017.1 |
| 20260901030012 | 25 | 239 | 0.0 | 3.2 | 0.00 | 0.00 | 0.00 | 67 | 1016.9 |
| 20260901024511 | 26 | 211 | 0.0 | 1.6 | 0.00 | 0.00 | 0.00 | 66 | 1016.7 |
| 20260901023013 | 26 | 211 | 0.0 | 0.0 | 0.00 | 0.00 | 0.00 | 62 | 1016.0 |
| 20260901021506 | 27 | 211 | 0.0 | 0.0 | 0.00 | 0.00 | 0.00 | 59 | 1015.6 |
| 20260901020011 | 27 | 211 | 0.0 | 0.0 | 0.00 | 0.00 | 0.00 | 58 | 1015.1 |